User: anonymous   Login
Location: Bothell
(47.7630°N, 122.2040°W)
Time: 03:59:29
(UTC-07:00)
Language:

Oscar 16 - Orbit

View from above orbital plane
View from above orbital plane
View from above satellite
View from above satellite

Ground track
Ground track

The orbit data is extracted from the following two-line orbital elements,

1 20439U 90005D   15108.43564736  .00000255  00000-0  10993-3 0  9992
2 20439 098.5373 045.5199 0010526 343.6248 150.8205 14.32523211318188
Epoch (UTC): 18 April 2015 10:27:19
Eccentricity: 0.0010526
inclination: 98.5373°
perigee height: 776 km
apogee height: 791 km
right ascension of ascending node: 45.5199°
argument of perigee: 343.6248°
revolutions per day: 14.32523211
mean anomaly at epoch: 150.8205°
orbit number at epoch: 31818

The dashed part of the orbit path shows where the satellite is in the earth's shadow,  

DLR